CW7992 Weather Reports


time (UTC)temp
C
wind
direction
speed
KPH
gust
KPH
rain 1hr
cm
rain 24hr
cm
rain mn
cm
humidity
%
barometer
mb
20260507092111 15 19 1.6 3.2 0.00 0.00 0.00 46 16.6
20260507091111 14 210 0.0 1.6 0.00 0.00 0.00 53 16.5
20260507090111 14 119 0.0 9.7 0.00 0.00 0.00 57 16.6
20260507083111 13 58 1.6 3.2 0.00 0.00 0.00 63 16.4
20260507082111 13 56 0.0 8.0 0.00 0.00 0.00 63 16.3
20260507081111 12 92 1.6 8.0 0.00 0.00 0.00 64 16.2
20260507075111 11 202 0.0 0.0 0.00 0.00 0.00 69 16.2
20260507074111 11 169 0.0 0.0 0.00 0.00 0.00 73 16.1
20260507073111 11 189 0.0 0.0 0.00 0.00 0.00 75 16.0
20260507072111 10 41 0.0 3.2 0.00 0.00 0.00 78 16.1
20260507071111 10 224 0.0 6.4 0.00 0.00 0.00 84 16.0
20260507070111 10 54 0.0 3.2 0.00 0.00 0.00 85 16.1
20260507065111 8 37 3.2 3.2 0.00 0.00 0.00 89 16.0
20260507064111 8 46 1.6 3.2 0.00 0.00 0.00 91 15.9
20260507063111 8 37 0.0 0.0 0.00 0.00 0.00 92 15.9
20260507062111 7 30 0.0 3.2 0.00 0.00 0.00 93 15.8
20260507061111 7 32 0.0 6.4 0.00 0.00 0.00 93 15.7
20260507060111 6 40 3.2 8.0 0.00 0.00 0.00 93 15.6
20260507055111 6 46 3.2 6.4 0.00 0.00 0.00 94 15.6
20260507054111 5 42 3.2 6.4 0.00 0.00 0.00 94 15.6
20260507053111 5 31 3.2 6.4 0.00 0.00 0.00 94 15.5
20260507052111 5 38 3.2 6.4 0.00 0.00 0.00 94 15.5
20260507051111 4 28 0.0 1.6 0.00 0.00 0.00 93 15.4
20260507050111 3 28 0.0 0.0 0.00 0.00 0.00 93 15.3
20260507045111 2 28 0.0 0.0 0.00 0.00 0.00 93 15.2
20260507044111 2 28 0.0 0.0 0.00 0.00 0.00 93 15.1
20260507043111 2 28 0.0 0.0 0.00 0.00 0.00 93 14.9
20260507035111 2 30 0.0 0.0 0.00 0.00 0.00 92 14.6
20260507034111 2 30 0.0 0.0 0.00 0.00 0.00 92 14.5
20260507033111 2 30 0.0 0.0 0.00 0.00 0.00 92 14.4
20260507032111 2 30 0.0 0.0 0.00 0.00 0.00 92 14.4
20260507030111 2 30 0.0 1.6 0.00 0.00 0.00 92 14.3
20260507025111 2 30 0.0 0.0 0.00 0.00 0.00 92 14.2
20260507022111 3 30 0.0 3.2 0.00 0.00 0.00 92 14.0
20260507021111 3 15 0.0 3.2 0.00 0.00 0.00 92 14.0
20260507020111 3 52 0.0 0.0 0.00 0.00 0.00 91 13.8
20260507015111 3 52 0.0 0.0 0.00 0.00 0.00 91 13.7
20260507013111 3 52 0.0 0.0 0.00 0.00 0.00 91 13.5
20260507012111 3 52 0.0 0.0 0.00 0.00 0.00 91 13.4
20260507011111 4 52 0.0 0.0 0.00 0.00 0.00 91 13.4
20260507010111 4 52 0.0 0.0 0.00 0.00 0.00 91 13.4
20260507005111 4 52 0.0 0.0 0.00 0.00 0.00 91 13.3
20260507004111 4 52 0.0 0.0 0.00 0.00 0.00 91 13.3
20260507003111 4 52 0.0 0.0 0.00 0.00 0.00 90 13.3
20260507001111 5 52 0.0 0.0 0.00 0.00 0.00 90 13.3
20260507000111 5 52 0.0 0.0 0.00 0.00 0.00 90 13.3
20260506235111 5 52 0.0 0.0 0.00 0.00 0.00 90 13.3
20260506234111 5 52 0.0 0.0 0.00 0.00 0.00 89 13.3
20260506233111 5 52 0.0 0.0 0.00 0.00 0.00 89 13.3
20260506232111 5 52 0.0 0.0 0.00 0.00 0.00 89 13.2
20260506231111 5 52 0.0 0.0 0.00 0.00 0.00 89 13.2
20260506230111 5 52 0.0 0.0 0.00 0.00 0.00 88 13.2
20260506225111 5 52 0.0 0.0 0.00 0.00 0.00 88 13.1
20260506224111 5 52 0.0 1.6 0.00 0.00 0.00 88 13.0
20260506223111 6 52 0.0 1.6 0.00 0.00 0.00 88 13.0
20260506222111 5 53 0.0 0.0 0.00 0.00 0.00 87 13.0
20260506220111 6 53 0.0 0.0 0.00 0.00 0.00 86 12.9
20260506215111 6 53 0.0 0.0 0.00 0.00 0.00 86 12.8
20260506214111 6 53 0.0 0.0 0.00 0.00 0.00 85 12.6
20260506211111 7 53 0.0 0.0 0.00 0.00 0.00 82 12.4
20260506210111 7 53 0.0 0.0 0.00 0.00 0.00 81 12.3
20260506205111 7 53 0.0 0.0 0.00 0.00 0.00 80 12.3
20260506204111 7 53 0.0 0.0 0.00 0.00 0.00 79 12.2
20260506203111 8 53 0.0 0.0 0.00 0.00 0.00 78 12.1
20260506202111 8 53 0.0 1.6 0.00 0.00 0.00 76 12.0
20260506201111 8 59 0.0 1.6 0.00 0.00 0.00 76 12.0
20260506200111 8 59 0.0 0.0 0.00 0.00 0.00 75 12.0
20260506195111 9 59 0.0 3.2 0.00 0.00 0.00 74 11.9
20260506194111 9 59 1.6 1.6 0.00 0.00 0.00 74 11.8
20260506191111 10 59 0.0 0.0 0.00 0.00 0.00 73 11.4
20260506190111 10 59 0.0 0.0 0.00 0.00 0.00 72 11.3
20260506185111 11 59 0.0 0.0 0.00 0.00 0.00 70 11.3
20260506183111 11 78 1.6 3.2 0.00 0.00 0.00 65 11.0
20260506182111 12 35 3.2 3.2 0.00 0.00 0.00 63 10.9
20260506180111 12 30 3.2 9.7 0.00 0.00 0.00 63 10.7
20260506175111 12 5 1.6 3.2 0.00 0.00 0.00 62 10.7
20260506174111 12 27 4.8 9.7 0.00 0.00 0.00 57 10.6
20260506172111 12 37 4.8 8.0 0.00 0.00 0.00 57 10.5
20260506171111 12 53 3.2 9.7 0.00 0.00 0.00 56 10.4
20260506170111 13 37 3.2 3.2 0.00 0.00 0.00 56 10.4
20260506164111 13 53 4.8 8.0 0.00 0.00 0.00 53 10.3
20260506161111 14 42 3.2 11.3 0.00 0.00 0.00 53 10.3
20260506160111 14 55 3.2 8.0 0.00 0.00 0.00 51 10.3
20260506155112 14 49 3.2 11.3 0.00 0.00 0.00 52 10.3
20260506154111 15 55 8.0 24.1 0.00 0.00 0.00 49 10.3
20260506153111 15 65 4.8 11.3 0.00 0.00 0.00 52 10.3
20260506152111 15 56 6.4 16.1 0.00 0.00 0.00 53 10.2
20260506151111 15 58 8.0 16.1 0.00 0.00 0.00 52 10.2
20260506145111 15 26 8.0 12.9 0.00 0.00 0.00 54 10.2
20260506144111 16 34 6.4 12.9 0.00 0.00 0.00 52 10.1
20260506143111 15 9 8.0 12.9 0.00 0.00 0.00 51 10.1
20260506142111 15 5 11.3 17.7 0.00 0.00 0.00 52 10.2
20260506141111 15 21 6.4 11.3 0.00 0.00 0.00 56 10.2
20260506140111 16 56 8.0 12.9 0.00 0.00 0.00 56 10.3
20260506135111 15 57 12.9 22.5 0.00 0.00 0.00 53 10.3
20260506134111 15 61 4.8 16.1 0.00 0.00 0.00 56 10.4
20260506133111 15 46 8.0 12.9 0.00 0.00 0.00 56 10.4
20260506132111 15 360 9.7 16.1 0.00 0.00 0.00 55 10.4
20260506131111 15 53 9.7 20.9 0.00 0.00 0.00 56 10.4
20260506130111 15 44 12.9 24.1 0.00 0.00 0.00 55 10.4
20260506125111 16 46 8.0 12.9 0.00 0.00 0.00 55 10.4
20260506124111 16 57 12.9 19.3 0.00 0.00 0.00 54 10.3
20260506123111 15 21 8.0 16.1 0.00 0.00 0.00 56 10.4
20260506122111 15 53 12.9 22.5 0.00 0.00 0.00 57 10.4
20260506121111 15 5 8.0 17.7 0.00 0.00 0.00 59 10.4
20260506120111 15 59 8.0 19.3 0.00 0.00 0.00 57 10.4
20260506115111 16 78 8.0 16.1 0.00 0.00 0.00 56 10.3
20260506114111 15 59 12.9 19.3 0.00 0.00 0.00 58 10.5
20260506111111 15 51 1.6 20.9 0.00 0.00 0.00 60 10.6
20260506110111 15 58 8.0 17.7 0.00 0.00 0.00 56 10.7
20260506105111 15 30 11.3 19.3 0.00 0.00 0.00 58 10.6
20260506104111 15 69 8.0 17.7 0.00 0.00 0.00 63 10.7
20260506103111 15 29 12.9 17.7 0.00 0.00 0.00 60 10.8
20260506102111 15 53 8.0 19.3 0.00 0.00 0.00 62 10.9
20260506101111 15 304 9.7 17.7 0.00 0.00 0.00 58 10.9
20260506100111 14 56 11.3 20.9 0.00 0.00 0.00 59 10.9
20260506095111 14 36 6.4 12.9 0.00 0.00 0.00 62 11.0
20260506094111 13 355 8.0 12.9 0.00 0.00 0.00 59 11.0